Location: Alphen aan den Rijn
(52.1277°N, 4.6689°E)
Time: 17:56:35
(UTC+02:00)

N. Korean satellite - Visible Passes

Search period start: 24 September 2017 00:00
Search period end: 04 October 2017 00:00
Orbit: 461 x 516 km, 97.2° (Epoch: 23 September)

Date Brightness Start Highest point End Pass type
(mag) Time Alt. Az. Time Alt. Az. Time Alt. Az.
24 Sep 9.8 20:42:44 10° SW 20:45:21 18° W 20:47:58 10° NW visible
25 Sep 8.9 20:18:39 10° SSW 20:21:58 30° W 20:25:16 10° NNW visible
27 Sep 10.4 21:08:54 10° W 21:09:28 10° W 21:10:02 10° WNW visible
28 Sep 9.8 20:43:27 10° SW 20:46:00 17° W 20:48:32 10° NW visible
29 Sep 8.9 20:19:20 10° SSW 20:22:36 29° W 20:25:50 10° NNW visible
30 Sep 7.7 19:55:39 10° S 19:59:16 51° W 20:02:50 10° NNW visible
02 Oct 9.8 20:44:08 10° SW 20:46:35 17° W 20:49:02 10° NW visible
03 Oct 8.9 20:19:57 10° SSW 20:23:11 28° W 20:26:22 10° NW visible
